Regional Weather Roundup
Issued by NWS

Home | Current Version | Previous Version | Graphics & Text | Print | Product List | Glossary On
Versions: 1 2 3 4 5 6 7 8 9 10 11 12 13 14 15 16 17 18 19 20 21 22 23 24 25 26 27 28 29 30 31 32 33 34 35 36 37 38 39 40 41 42 43 44 45 46 47 48 49
000
ASUS45 KBOU 250607
RWRCO

WEATHER ROUNDUP FOR COLORADO
NATIONAL WEATHER SERVICE DENVER/BOULDER CO
1200 AM MDT TUE APR 25 2017

NOTE: "FAIR" INDICATES FEW OR NO CLOUDS BELOW 12000 FEET WITH NO
SIGNIFICANT WEATHER AND/OR OBSTRUCTIONS TO VISIBILITY.

COZ001>005-013-030-031-250700-
...NORTHWEST COLORADO...

CITY           SKY/WX    TMP DP  RH WIND       PRES   REMARKS
CRAIG          LGT SNOW  34  31  88 SW8       29.72R FOG     WCI  27
HAYDEN         CLOUDY    32  28  86 W5        29.70F WCI  27
MEEKER         CLOUDY    39  35  86 E5        29.71S
MOUNT WERNER   NOT AVBL
STEAMBOAT SPGS CLOUDY    32  32 100 E3        29.68F
WALDEN           N/A     32  30  93 CALM      29.70F
$$

COZ006>008-011-250700-
...WEST CENTRAL VALLEYS...

CITY           SKY/WX    TMP DP  RH WIND       PRES   REMARKS
GRAND JUNCTION CLOUDY    48  38  68 W3        29.71R
MONTROSE       CLOUDY    49  33  54 NW25G38   29.69R
EAGLE          LGT RAIN  39  35  86 SW22      29.73R
RIFLE          LGT RAIN  43  37  79 W13       29.75R
DELTA          CLOUDY    53  34  49 W16G22    29.65R
NUCLA          CLOUDY    52  32  46 NW18G29   29.73R
$$

COZ017>023-064>068-250700-
...SOUTHWEST COLORADO...

CITY           SKY/WX    TMP DP  RH WIND       PRES   REMARKS
DURANGO        CLOUDY    47  30  51 NW3       29.71F
CORTEZ         MOCLDY    46  34  62 NE6       29.68F
PAGOSA SPRINGS CLOUDY    46  30  54 CALM      29.75F
TELLURIDE      FAIR      46  19  34 SW14G24   29.79F
WOLF CREEK PAS FLURRIES  27  27 100 S25G36    29.87F WCI  11
$$

COZ009-010-012-014-032>034-037-058>063-250700-
...CENTRAL COLORADO...

CITY           SKY/WX    TMP DP  RH WIND       PRES   REMARKS
ASPEN          LGT SNOW  33  32  96 VRB6      29.73R VSB 1   WCI  28
BUENA VISTA    FAIR      46  28  49 S15G23    29.63F
COPPER MTN     LGT SNOW  32  27  80 S12       29.75F VSB 1   WCI  23
BERTHOUD PASS  CLOUDY    21  10  63 N8G38     29.75F VSB 1/4 WCI  12
COTTONWOOD PAS CLOUDY    41  27  56 W3        29.69F
GUNNISON       FAIR      44  31  60 N14       29.65F
KREMMLING      MOCLDY    39  34  81 N7        29.69F
LEADVILLE      LGT SNOW  32  29  88 VRB3      29.67F FOG
MONARCH PASS   LGT SNOW  28  27  93 SW45G56   29.84F WCI  10
SALIDA         FAIR      48  32  53 SW17G30   29.72F
SUNLIGHT       HVY SNOW  23  23 100 W15G31    29.80S VSB 1/4 WCI  10
WILKERSON PASS FAIR      30  23  74 SW9G21    29.75F WCI  22
$$

COZ069>075-250700-
...SAN LUIS VALLEY/SANGRE DE CRISTO MOUNTAINS...

CITY           SKY/WX    TMP DP  RH WIND       PRES   REMARKS
ALAMOSA        FAIR      44  26  49 SW7       29.69F
LA VETA PASS   CLOUDY    36  25  64 S17G33    29.89F
SAGUACHE       FAIR      37  30  75 SE10      29.69F
$$

COZ035-036-038>040-250700-
...NORTHERN COLORADO FRONT RANGE...

CITY           SKY/WX    TMP DP  RH WIND       PRES   REMARKS
DENVER INTL AP MOCLDY    44  37  76 N8        29.55R
DMNS CITY PARK   N/A     48  37  65 N12       29.57R
AURORA         MOCLDY    42  37  82 NW7       29.55F
FRONT RANGE AP FAIR      43  37  81 CALM      29.55R
ERIE MUNI ARPT FAIR      45  42  87 N8        29.58R THUNDER
BOULDER MUN AP CLOUDY    46  41  81 N8        29.59R
CENTENNIAL     FAIR      45  38  76 W5        29.56F
BROOMFIELD     FAIR      46  39  76 N12       29.59R
FORT COLLINS   RAIN      43  39  87 NW13      29.62R
LONGMONT       LGT RAIN  51  42  72 N13       29.61R
$$

COZ041-046-047-076>085-087-088-250700-
...PIKES PEAK/PALMER DIVIDE AND SOUTHERN FOOTHILLS...

CITY           SKY/WX    TMP DP  RH WIND       PRES   REMARKS
COLO. SPRINGS  MOCLDY    52  36  54 NE10      29.55F
A. F. ACADEMY  FAIR      45  29  53 N7        29.55F
SCHRIEVER AFB  MOCLDY    49  36  60 NW12      29.55F
ELLICOTT       FAIR     N/A N/A N/A E12       29.53F
FALCON         FAIR      46  34  62 NE5       29.58F
FORT CARSON    FAIR      51  36  55 N7        29.53F
LIMON          FAIR      49  38  65 VRB6      29.52F
MONUMENT HILL  FAIR      37  32  81 CALM      29.59F
TRINIDAD       FAIR      51  26  37 SW8       29.57F
$$

COZ042>045-048>051-090-091-250700-
...NORTHEAST COLORADO...

CITY           SKY/WX    TMP DP  RH WIND       PRES   REMARKS
GREELEY ARPT   CLOUDY    45  37  76 NW28G33   29.58R
AKRON          CLOUDY    48  43  82 N5        29.53R
BURLINGTON     NOT AVBL
WRAY           NOT AVBL
STERLING       MOCLDY    48  45  87 E8        29.51S
HOLYOKE        FAIR      52  46  82 NE10      29.52F
FORT MORGAN    MOCLDY    45  41  88 N13       29.52F THUNDER
$$

COZ086-089-092>099-250700-
...SOUTHEAST COLORADO...

CITY           SKY/WX    TMP DP  RH WIND       PRES   REMARKS
PUEBLO         FAIR      53  36  52 CALM      29.48F
LA JUNTA       FAIR      64  30  27 W13       29.45F
LAMAR          FAIR      67  29  24 W14       29.42F
SPRINGFIELD      N/A     56  40  55 W7        29.49F
$$



USA.gov is the U.S. government's official web portal to all federal, state and local government web resources and services.